User: anonymous   Login
Location: Tel Aviv
(32.0670°N, 34.7670°E)
Time: 08:47:21
(UTC+03:00)
Language:

Transit 2A - Orbit

View from above orbital plane
View from above orbital plane
View from above satellite
View from above satellite

Ground track
Ground track

The orbit data is extracted from the following two-line orbital elements,

1 00045U 60007A   22176.55288275  .00000101  00000-0  52475-4 0  9991
2 00045  66.6936 235.6219 0249999 139.7081 222.2848 14.33866818171641
Epoch (UTC): 25 June 2022 13:16:09
Eccentricity: 0.0249999
inclination: 66.6936°
perigee height: 600 km
apogee height: 958 km
right ascension of ascending node: 235.6219°
argument of perigee: 139.7081°
revolutions per day: 14.33866818
mean anomaly at epoch: 222.2848°
orbit number at epoch: 17164

The dashed part of the orbit path shows where the satellite is in the earth's shadow,  

DLR